Flag for India Weather past 2 weeks in Dharamshala, Himachal Pradesh, India

Now
91 °F

Broken clouds.


Feels Like: 103 °F
Forecast: 64 / 74 °F
Wind: 2 mph from North

Location: Amritsar Airport

Current Time: Jul 6, 2015 at 1:23:07 PM

Latest Report: Jul 6, 2015 at 11:30 AM


Visibility: 3 mi

Pressure: 29.47 "Hg (25.26 "Hg at 1382m altitude)

Humidity: 59%

Dew point: 75 °F

Location of DharamshalaLocation

Historic Weather in Dharamshala — Graph

°F

Dharamshala temperature yesterday

Maximum temperature yesterday: 102 °F (at 1:30 PM)
Minimum temperature yesterday: 88 °F (at 3:30 AM)
Average temperature yesterday: 95 °F

Past Weeks' High & Low Weather Summary

 TemperatureHumidityPressure
High106 °F (Jun 28, 4:00 PM)100% (Jun 24, 4:00 AM)29.71 "Hg (Jun 24, 4:00 AM)
Low73 °F (Jun 23, 12:00 PM)27% (Jun 27, 2:30 PM)29.36 "Hg (Jun 22, 5:30 PM)
Average89 °F64%29.51 "Hg
* Reported Jun 21 11:30 AM — Jul 6 11:30 AM, Dharamshala, Weather by CustomWeather, © 2015

Note: Actual official high and low records may vary slightly from our data, if they occured in-between our weather recording intervals... More about our weather records

Advertising

Dharamshala weather history for previous 24 hours

 ConditionsComfort  
Time TempWeatherWind HumidityBarometerVisibility
11:30 AM
Mon, Jul 6
91 °FBroken clouds.2 mph59%29.47 "Hg3 mi
11:00 AM90 °FBroken clouds.7 mph63%29.47 "Hg3 mi
10:30 AM88 °FBroken clouds.6 mph66%29.47 "Hg3 mi
9:30 AM86 °FFog.9 mph70%29.45 "Hg2 mi
8:30 AM82 °FFog.8 mph79%29.45 "Hg3 mi
8:00 AM82 °FFog.8 mph79%29.42 "Hg3 mi
7:30 AM81 °FFog.8 mph79%29.42 "Hg2 mi
6:30 AM77 °FFog.6 mph89%29.42 "Hg2 mi
6:00 AM77 °FFog.12 mph83%29.42 "Hg1 mi
5:00 AM77 °FFog.13 mph79%29.42 "Hg1 mi
4:00 AM81 °FFog.24 mph70%29.47 "Hg1 mi
3:30 AM84 °FFog.8 mph74%29.45 "Hg1 mi
3:00 AM82 °FFog.9 mph74%29.39 "Hg1 mi
1:30 AM91 °FPassing clouds.1 mph71%29.42 "Hg1 mi
1:00 AM91 °FPassing clouds.No wind71%29.39 "Hg1 mi
12:30 AM91 °FPassing clouds.No wind71%29.39 "Hg1 mi
12:00 AM91 °FPassing clouds.No wind75%29.39 "Hg1 mi
11:30 PM
Sun, Jul 5
91 °FPassing clouds.No wind75%29.39 "Hg1 mi
11:00 PM91 °FPassing clouds.No wind75%29.39 "Hg1 mi
10:30 PM93 °FPassing clouds.3 mph71%29.39 "Hg1 mi
9:30 PM95 °FPassing clouds.5 mph67%29.39 "Hg1 mi
9:00 PM95 °FPassing clouds.6 mph67%29.39 "Hg1 mi
8:30 PM95 °FPassing clouds.6 mph63%29.36 "Hg1 mi
8:00 PM95 °FScattered clouds.7 mph67%29.36 "Hg1 mi
7:30 PM97 °FScattered clouds.7 mph56%29.39 "Hg1 mi
6:30 PM99 °FScattered clouds.9 mph50%29.36 "Hg1 mi
6:00 PM99 °FScattered clouds.9 mph53%29.36 "Hg1 mi
5:30 PM99 °FScattered clouds.9 mph57%29.36 "Hg1 mi
5:00 PM100 °FHaze.10 mph53%29.36 "Hg1 mi
4:30 PM100 °FHaze.10 mph53%29.36 "Hg1 mi
3:30 PM102 °FPassing clouds.8 mph48%29.39 "Hg2 mi
3:00 PM102 °FPassing clouds.7 mph42%29.39 "Hg2 mi
2:30 PM102 °FPassing clouds.7 mph45%29.42 "Hg2 mi
2:00 PM102 °FPassing clouds.3 mph42%29.42 "Hg2 mi
1:30 PM102 °FPassing clouds.5 mph40%29.42 "Hg2 mi
1:00 PM100 °FPassing clouds.5 mph45%29.42 "Hg2 mi
Weather by CustomWeather, © 2015

See weather overviewHow to use our weather pages